Wind_Speed
14 8 6 11 8 13 21 15 19 32 23 17 20 18 19 16 11 22 28 26 25 27 27 25 26 26 26 23 25 25 22 20 20 21 21 21 19 18 17 16 15 13 11 10 10 9 9 9 10
1 5 8 16 20 22 20 20 26 22 20 19 15 18 17 11 14 30 29 27 25 25 25 25 24 23 21 21 23 22 20 19 19 20 20 19 18 17 16 14 13 12 11 10 9 9 9 9 9
9 8 13 11 10 32 31 18 22 21 18 11 17 17 11 24 25 28 27 28 26 25 24 24 21 20 19 21 21 19 18 17 17 18 18 17 16 15 13 12 10 9 8 8 8 8 8 8 7
10 3 11 19 27 23 21 15 14 18 17 12 17 20 24 21 20 24 27 26 24 23 21 19 19 18 18 18 18 17 14 14 14 15 15 14 13 12 11 9 7 6 7 8 8 8 8 8 8
8 10 13 28 30 26 17 11 9 15 16 9 18 26 25 22 22 21 23 22 19 19 19 17 17 16 15 15 15 14 13 12 12 12 11 10 9 8 7 5 4 5 6 6 6 6 7 8 8
18 20 20 20 26 26 18 11 13 10 11 13 19 24 27 22 22 22 21 20 18 16 16 15 16 15 14 13 13 13 12 12 11 11 9 8 6 5 4 3 3 3 4 4 5 6 7 8 8
21 23 15 24 31 25 15 8 16 21 20 16 18 20 27 24 22 20 20 19 18 16 15 14 14 14 13 13 12 12 11 10 9 8 7 6 5 3 1 1 3 3 5 6 7 7 8 7 7
14 9 8 20 28 25 15 11 9 12 18 19 6 13 25 24 23 22 20 18 16 15 14 13 13 12 11 10 10 9 8 8 8 7 6 5 4 3 4 8 1 3 6 7 7 8 8 9 7
10 9 8 19 24 22 17 11 11 10 13 10 12 9 20 24 22 21 20 20 18 16 15 13 12 13 12 10 9 8 7 7 6 6 5 3 2 3 3 5 4 5 6 8 7 8 8 10 6
7 2 9 17 16 26 20 8 11 9 12 11 8 14 19 19 17 18 19 17 17 14 13 13 12 12 12 11 10 9 8 7 7 6 4 4 4 4 4 6 5 7 8 7 8 8 7 7 7
19 13 20 24 22 23 18 13 13 9 6 1 4 11 14 14 15 12 15 11 13 15 14 13 12 10 10 9 9 9 8 8 7 6 6 6 6 4 4 5 6 6 6 6 6 5 5 7 7
16 21 29 25 25 20 16 15 16 12 5 2 4 8 8 11 10 10 12 14 16 14 13 12 11 10 10 11 7 7 8 9 7 7 8 8 7 6 4 4 6 5 5 4 4 4 6 7 9
17 31 34 25 21 17 11 19 18 15 11 7 4 9 8 9 10 9 9 7 9 11 12 12 11 11 9 5 1 3 7 9 7 9 9 9 9 6 6 7 6 8 7 7 6 8 11 12 12
33 38 32 20 18 10 5 19 22 18 14 10 8 10 11 11 11 10 8 7 7 8 6 8 6 6 5 5 2 3 3 4 6 4 6 8 7 7 8 8 9 10 11 11 12 14 14 15 13
26 30 29 23 14 7 4 18 15 22 15 11 13 15 17 14 12 11 8 6 7 8 7 6 7 7 9 7 4 5 7 7 8 9 11 11 10 9 9 10 11 12 14 14 15 17 18 17 17
37 27 32 25 15 10 1 15 14 18 17 13 14 13 13 13 11 10 8 9 9 11 11 11 9 8 7 7 6 7 9 9 10 11 13 13 13 10 7 9 12 15 15 17 18 19 19 18 20
38 35 27 30 18 11 9 17 10 11 13 14 11 9 9 7 8 9 9 9 11 13 13 11 10 9 11 10 9 8 9 11 11 11 13 14 12 14 13 13 14 16 18 19 22 25 26 26 25
28 27 28 30 26 19 14 9 13 13 13 13 9 9 7 6 6 7 8 11 12 14 12 10 10 12 10 10 8 8 9 11 12 13 15 16 14 16 15 21 20 20 22 25 26 25 24 23 22
11 28 33 28 28 25 18 14 10 11 11 11 9 7 10 10 5 5 3 7 9 9 10 11 9 7 7 6 3 3 7 10 13 16 17 18 19 20 21 21 21 21 21 22 23 20 19 18 20
17 14 30 29 26 26 19 16 12 15 12 12 5 7 11 15 17 10 7 3 4 7 6 4 5 8 7 5 4 7 9 11 13 15 17 17 19 20 16 13 15 16 18 20 20 20 20 19 20
19 15 31 29 26 23 23 23 26 24 19 23 18 15 8 14 13 14 10 7 7 8 8 8 9 9 7 5 7 12 15 14 11 10 12 9 12 14 15 15 15 18 19 20 22 23 23 19 20
23 16 27 31 33 23 31 20 33 31 32 32 27 25 19 17 13 14 12 13 11 10 10 9 8 8 6 4 7 12 16 21 20 14 12 12 12 12 13 13 15 18 20 22 21 21 21 21 17
22 15 21 20 31 38 37 12 38 37 38 39 36 33 29 23 19 12 15 14 12 12 11 10 9 8 5 3 4 9 16 21 24 23 18 16 14 13 13 13 15 17 18 18 18 17 18 18 19
17 24 20 15 32 18 29 38 20 48 39 36 36 35 36 29 25 22 12 13 15 15 13 11 11 10 7 3 3 8 13 17 21 25 24 21 17 15 15 15 16 18 16 15 14 16 17 16 16
31 25 13 6 6 8 21 28 32 24 34 34 28 29 36 31 29 28 24 20 20 18 14 13 13 13 9 6 3 4 7 12 16 20 23 24 21 18 17 17 19 17 14 13 14 16 16 15 15
26 28 15 7 3 10 21 13 31 28 29 26 31 29 38 34 29 31 28 24 22 23 19 16 15 15 15 10 8 6 7 10 14 18 23 26 26 22 20 18 17 17 14 13 14 16 17 17 17
33 34 24 21 10 3 17 24 29 35 23 31 32 31 38 35 33 33 31 29 27 28 24 21 21 20 21 20 17 14 15 13 12 15 19 23 28 26 24 20 18 18 18 17 16 16 18 19 18
35 29 26 20 6 4 11 14 18 20 21 33 32 28 31 37 36 31 35 35 33 27 29 27 24 26 25 27 23 22 23 20 16 17 19 23 27 27 23 22 19 18 18 18 18 18 19 20 21
36 36 34 29 23 8 3 8 9 13 18 32 32 25 26 31 31 29 36 36 32 30 29 30 31 30 33 30 23 20 25 25 22 19 19 21 26 26 23 22 19 16 16 17 17 18 18 19 19
36 39 32 26 13 14 16 11 13 13 20 26 24 23 23 28 31 26 28 31 34 33 30 28 34 36 36 31 24 25 24 27 25 21 19 20 23 25 22 19 17 15 16 18 19 20 20 18 18
Wind_Direction
32 19 358 64 108 104 117 131 120 132 130 109 156 147 138 122 120 120 122 122 124 126 129 125 124 125 124 126 124 120 114 111 110 112 112 115 114 111 111 108 108 106 97 84 77 68 59 49 46
29 15 91 100 108 107 115 114 122 120 120 114 137 147 150 119 131 124 124 127 126 124 123 123 121 122 118 120 122 122 118 111 111 112 117 116 114 110 107 105 103 100 95 87 79 70 61 50 43
323 71 102 118 113 110 120 107 114 118 120 128 123 161 141 123 133 124 128 127 127 124 122 121 123 120 121 122 126 126 119 115 118 122 119 117 115 110 107 101 98 93 90 80 65 50 43 43 28
140 353 79 129 116 126 110 108 110 113 102 108 130 137 127 134 127 128 130 129 127 124 125 127 126 123 121 126 132 126 122 116 120 122 119 114 111 103 98 97 98 89 72 62 53 35 24 25 16
61 110 145 125 121 122 107 97 68 104 126 139 141 125 123 126 132 132 130 131 132 131 132 132 129 127 126 129 130 133 126 120 118 123 125 126 114 107 102 102 90 78 64 54 42 27 20 20 7
99 105 109 113 125 134 132 87 83 115 121 131 148 136 124 130 134 135 138 137 138 137 135 135 133 132 130 130 131 134 134 129 121 125 133 133 123 108 94 78 55 33 32 25 20 17 12 11 1
105 106 91 115 138 140 128 86 94 84 93 118 141 137 135 139 139 138 140 143 146 145 140 138 139 143 142 140 140 138 136 128 131 140 146 130 120 126 148 346 351 2 358 2 6 8 2 359 353
138 109 123 127 142 144 144 111 91 67 92 96 107 143 142 147 146 145 147 149 152 152 151 149 148 149 151 150 147 145 144 148 154 165 163 165 170 117 0 8 28 346 8 2 6 11 5 10 352
118 140 117 145 144 159 148 159 83 63 102 91 92 147 136 149 154 158 161 157 161 163 162 161 163 164 160 158 159 162 167 171 182 192 188 181 233 300 329 22 20 1 12 2 2 15 9 9 351
218 332 228 163 147 152 153 160 133 127 117 111 125 133 136 134 140 162 168 163 164 166 164 167 171 169 170 170 173 176 181 186 199 213 210 201 232 265 313 7 354 342 6 358 346 19 13 19 17
253 265 174 171 155 158 154 148 153 125 156 16 146 119 132 135 144 142 151 156 176 172 174 178 175 179 176 181 184 190 197 199 207 224 232 231 237 259 292 335 334 343 5 6 338 357 7 4 8
217 195 181 149 158 168 169 156 173 182 166 163 111 141 145 146 155 172 177 182 177 176 187 188 186 193 196 193 205 211 218 220 224 240 261 265 265 263 281 309 311 306 323 319 329 334 349 342 342
140 148 174 147 147 157 163 187 190 175 191 175 212 162 164 161 175 188 154 182 176 186 207 203 189 190 201 233 116 241 269 234 246 255 254 266 270 257 280 286 288 300 310 310 309 314 316 315 312
154 145 159 160 164 139 79 162 187 178 181 183 210 185 180 191 199 203 204 197 217 220 189 206 188 191 201 207 221 250 302 283 301 271 297 291 288 282 267 268 276 288 293 290 289 292 296 301 304
150 140 148 164 166 144 95 139 189 185 192 198 197 185 188 200 207 222 234 222 212 232 233 218 212 206 215 224 241 270 280 289 293 304 314 305 297 294 283 272 278 281 283 282 286 287 289 290 292
146 150 151 159 159 149 229 147 184 201 204 212 201 201 204 201 215 221 239 250 230 230 232 238 208 210 218 233 237 257 273 282 294 299 296 304 305 314 300 283 287 286 287 290 290 293 295 294 289
164 164 172 167 198 219 190 145 151 175 198 210 203 208 208 215 247 258 246 260 248 244 241 234 206 210 225 235 237 247 265 274 278 287 292 292 308 297 283 279 282 285 290 290 290 292 292 291 290
182 172 183 188 196 201 202 172 167 158 153 149 158 194 206 245 271 285 241 264 249 242 245 237 216 218 229 233 248 261 269 279 280 280 280 282 282 279 290 288 291 292 286 286 291 293 293 295 292
216 200 189 204 194 191 217 205 198 187 181 181 185 198 223 255 261 218 244 264 235 228 225 238 230 235 232 235 271 311 300 291 285 276 273 278 281 278 281 290 289 294 298 298 297 303 303 295 291
231 246 198 207 201 205 202 198 202 195 201 199 215 221 224 244 245 227 227 222 183 174 186 181 138 166 163 121 58 13 352 327 308 301 294 288 281 280 285 286 287 288 295 301 309 312 311 310 303
234 270 198 212 205 202 192 184 195 207 211 211 226 261 249 241 228 225 220 211 163 151 160 155 152 140 141 109 55 35 25 14 360 327 306 297 285 283 292 306 315 313 312 311 313 312 310 309 303
254 248 229 231 196 187 200 200 203 206 212 210 225 230 236 249 245 237 227 224 185 177 176 174 163 158 145 95 55 35 25 23 18 5 343 330 322 314 312 321 308 308 307 305 305 306 306 309 306
243 268 239 218 205 198 200 220 218 207 208 218 220 228 231 245 256 246 229 234 215 208 196 183 178 183 160 122 59 29 26 23 21 18 6 353 341 332 322 317 310 302 301 303 307 307 309 308 306
243 270 232 180 199 195 216 214 217 211 220 220 222 222 228 234 252 249 247 245 235 229 218 208 199 199 188 168 43 25 18 12 10 15 15 8 357 343 332 325 322 326 324 318 313 311 308 307 305
248 249 220 243 205 206 224 208 229 235 234 226 227 223 220 234 246 250 240 244 247 245 238 234 229 214 214 231 280 2 349 350 350 355 6 9 3 349 338 334 330 329 325 317 310 310 309 308 304
248 238 216 193 215 258 245 240 258 263 260 233 224 224 217 228 241 246 245 251 262 272 266 256 251 249 255 262 275 275 282 307 331 343 351 356 358 356 345 336 331 329 323 316 313 312 307 303 302
245 235 235 227 244 261 258 270 281 279 239 217 212 220 223 224 232 242 237 246 252 269 276 278 277 264 266 266 265 274 277 283 303 322 332 341 349 351 344 336 327 320 318 317 314 310 304 302 301
238 226 221 217 180 231 268 287 281 226 212 207 202 213 222 226 229 239 243 238 242 262 268 265 263 264 262 259 270 261 270 278 289 306 323 336 343 343 340 332 327 323 318 314 311 306 302 301 303
225 219 219 226 223 171 235 257 266 224 208 198 197 206 218 228 238 246 238 244 256 250 270 269 258 263 261 280 292 288 268 270 282 294 311 328 333 337 332 331 324 322 318 316 312 306 304 302 299
225 219 225 219 208 225 240 242 239 222 210 201 197 202 216 225 237 243 241 245 248 252 279 283 266 263 263 280 282 286 273 262 270 282 300 316 326 331 331 336 329 324 320 314 311 311 307 302 300
Height
3175 3175 3176 3175 3179 3175 3177 3180 3179 3179 3180 3180 3181 3183 3184 3184 3185 3186 3185 3189 3193 3195 3196 3198 3199 3200 3201 3204 3204 3206 3207 3210 3210 3210 3213 3214 3215 3215 3216 3217 3218 3219 3219 3220 3219 3219 3218 3218 3217
3177 3176 3178 3179 3179 3176 3180 3181 3182 3182 3182 3183 3183 3184 3185 3185 3185 3185 3187 3192 3196 3198 3200 3201 3202 3204 3205 3206 3207 3209 3211 3211 3212 3213 3215 3215 3217 3218 3218 3219 3219 3219 3220 3220 3220 3219 3219 3218 3217
3177 3177 3181 3182 3180 3178 3179 3182 3182 3184 3185 3184 3183 3186 3187 3187 3190 3189 3193 3195 3198 3200 3202 3203 3206 3206 3207 3208 3209 3212 3213 3214 3214 3215 3217 3217 3219 3219 3219 3220 3221 3221 3221 3221 3220 3220 3219 3219 3217
3181 3181 3182 3182 3179 3180 3180 3183 3182 3182 3186 3186 3185 3187 3189 3191 3193 3194 3195 3198 3201 3202 3204 3206 3207 3208 3208 3210 3212 3213 3215 3215 3216 3218 3218 3219 3220 3221 3221 3222 3222 3222 3222 3221 3220 3219 3219 3219 3217
3182 3180 3182 3182 3183 3183 3182 3182 3182 3181 3185 3189 3190 3188 3190 3194 3196 3197 3199 3201 3204 3205 3207 3208 3209 3210 3211 3212 3214 3215 3216 3217 3219 3219 3220 3221 3222 3222 3223 3223 3223 3222 3221 3221 3220 3219 3219 3219 3217
3182 3182 3184 3187 3186 3187 3186 3186 3187 3188 3188 3188 3190 3190 3192 3197 3199 3200 3202 3204 3207 3208 3209 3210 3211 3212 3213 3214 3215 3216 3217 3219 3219 3220 3221 3222 3222 3223 3223 3223 3222 3221 3220 3220 3220 3219 3219 3219 3217
3184 3187 3187 3187 3187 3188 3189 3190 3190 3190 3190 3191 3192 3191 3194 3198 3201 3202 3205 3207 3209 3210 3211 3211 3212 3214 3214 3215 3216 3217 3218 3219 3220 3220 3221 3223 3223 3224 3223 3222 3222 3221 3221 3221 3219 3218 3218 3217 3216
3187 3187 3190 3190 3189 3189 3191 3192 3192 3192 3192 3194 3197 3194 3194 3197 3201 3203 3205 3208 3209 3210 3212 3213 3214 3214 3216 3217 3218 3219 3220 3221 3221 3221 3223 3223 3223 3223 3223 3221 3221 3221 3220 3219 3219 3218 3217 3217 3215
3191 3192 3192 3191 3190 3191 3192 3191 3194 3194 3193 3194 3195 3197 3197 3199 3203 3204 3206 3207 3209 3211 3212 3214 3215 3216 3217 3218 3219 3220 3221 3222 3223 3223 3223 3224 3223 3223 3224 3222 3221 3220 3220 3218 3219 3218 3217 3216 3216
3188 3192 3191 3192 3190 3190 3192 3192 3191 3194 3194 3196 3196 3197 3199 3200 3203 3206 3207 3208 3210 3212 3213 3215 3216 3217 3217 3217 3218 3219 3220 3221 3222 3222 3223 3223 3222 3222 3221 3221 3221 3221 3220 3218 3218 3217 3217 3216 3216
3188 3190 3189 3191 3192 3191 3192 3191 3192 3193 3194 3197 3197 3198 3199 3200 3203 3206 3208 3209 3211 3211 3213 3214 3215 3216 3217 3217 3217 3218 3219 3220 3221 3221 3221 3222 3222 3221 3221 3221 3221 3220 3219 3217 3217 3217 3216 3216 3214
3183 3187 3188 3189 3193 3193 3194 3191 3190 3193 3195 3197 3198 3200 3200 3202 3203 3205 3207 3209 3211 3211 3212 3213 3215 3215 3216 3215 3216 3218 3218 3218 3219 3219 3219 3219 3221 3220 3220 3219 3219 3219 3218 3217 3216 3216 3216 3215 3213
3181 3181 3188 3189 3192 3194 3195 3194 3190 3193 3195 3197 3198 3199 3200 3202 3204 3205 3208 3208 3209 3211 3211 3213 3214 3215 3216 3216 3216 3216 3217 3216 3217 3217 3218 3218 3218 3218 3218 3218 3217 3217 3216 3216 3215 3215 3214 3214 3212
3179 3180 3187 3189 3191 3193 3193 3191 3192 3195 3197 3198 3199 3199 3201 3202 3204 3205 3206 3208 3209 3210 3210 3211 3212 3213 3214 3215 3215 3216 3216 3216 3216 3215 3215 3215 3215 3215 3215 3215 3215 3214 3214 3214 3214 3213 3212 3210 3210
3180 3183 3188 3188 3189 3190 3191 3193 3193 3195 3197 3199 3200 3201 3202 3202 3203 3204 3206 3207 3208 3209 3210 3210 3211 3212 3213 3214 3213 3214 3213 3214 3214 3213 3212 3212 3212 3212 3212 3213 3212 3212 3212 3211 3210 3209 3208 3207 3206
3178 3178 3185 3188 3187 3189 3191 3194 3195 3195 3196 3198 3200 3201 3202 3203 3203 3204 3205 3206 3207 3207 3208 3209 3210 3211 3212 3212 3213 3213 3213 3212 3212 3211 3210 3210 3209 3209 3209 3209 3210 3209 3207 3206 3205 3204 3204 3202 3201
3177 3177 3180 3186 3188 3188 3190 3192 3194 3193 3193 3196 3199 3200 3200 3201 3202 3203 3204 3205 3205 3206 3207 3208 3209 3210 3211 3212 3212 3212 3212 3211 3210 3209 3209 3208 3207 3206 3206 3206 3206 3206 3204 3203 3200 3200 3197 3195 3194
3172 3174 3177 3177 3182 3185 3187 3189 3191 3193 3194 3194 3195 3196 3197 3198 3200 3201 3203 3203 3204 3204 3205 3206 3208 3209 3210 3211 3211 3211 3210 3208 3208 3206 3206 3205 3204 3203 3202 3201 3202 3201 3199 3197 3195 3194 3192 3189 3186
3171 3172 3173 3176 3177 3179 3181 3185 3188 3189 3190 3190 3190 3192 3195 3197 3199 3200 3200 3201 3201 3202 3204 3205 3206 3207 3209 3210 3209 3209 3208 3206 3204 3203 3201 3201 3200 3199 3198 3198 3196 3194 3193 3191 3188 3188 3186 3184 3181
3169 3173 3172 3175 3177 3178 3180 3183 3184 3184 3185 3187 3189 3191 3193 3196 3198 3199 3199 3200 3200 3201 3202 3203 3204 3205 3207 3208 3208 3208 3206 3204 3201 3199 3198 3197 3195 3194 3194 3194 3194 3192 3189 3186 3184 3182 3181 3180 3176
3163 3167 3170 3170 3175 3179 3180 3183 3181 3182 3185 3187 3188 3190 3190 3193 3196 3197 3198 3200 3200 3200 3201 3203 3204 3204 3205 3206 3207 3206 3205 3202 3199 3197 3195 3193 3192 3191 3191 3190 3189 3187 3185 3183 3180 3178 3176 3176 3173
3160 3164 3166 3166 3168 3172 3175 3174 3177 3177 3180 3183 3183 3185 3187 3189 3193 3195 3195 3197 3198 3199 3200 3201 3203 3204 3205 3205 3205 3204 3203 3200 3197 3195 3192 3191 3190 3189 3188 3188 3186 3185 3182 3179 3177 3174 3172 3170 3171
3156 3159 3162 3161 3162 3164 3170 3172 3168 3175 3177 3176 3178 3178 3181 3185 3188 3191 3193 3195 3197 3198 3199 3199 3200 3202 3202 3203 3204 3203 3200 3198 3196 3194 3191 3190 3188 3187 3186 3185 3184 3182 3179 3176 3173 3171 3169 3168 3166
3151 3155 3156 3157 3159 3162 3160 3163 3162 3164 3164 3169 3173 3175 3178 3180 3183 3186 3190 3192 3195 3196 3197 3197 3198 3200 3201 3201 3201 3200 3198 3196 3196 3194 3191 3189 3186 3184 3183 3182 3179 3176 3174 3171 3169 3167 3166 3165 3164
3147 3150 3150 3153 3155 3155 3155 3160 3156 3157 3159 3162 3165 3168 3172 3176 3179 3181 3184 3186 3189 3193 3194 3194 3196 3197 3198 3198 3197 3196 3196 3196 3196 3194 3191 3188 3186 3184 3181 3178 3175 3172 3171 3169 3166 3164 3163 3162 3160
3141 3145 3145 3152 3152 3146 3149 3149 3147 3149 3151 3154 3159 3163 3167 3171 3173 3174 3178 3181 3183 3186 3188 3189 3191 3193 3194 3194 3194 3194 3194 3195 3193 3190 3187 3185 3183 3180 3176 3174 3171 3169 3166 3165 3163 3161 3159 3158 3156
3136 3135 3143 3143 3144 3145 3144 3146 3144 3141 3143 3149 3153 3158 3161 3166 3169 3170 3174 3176 3179 3180 3182 3184 3185 3187 3188 3189 3190 3191 3192 3192 3190 3189 3186 3184 3180 3175 3173 3171 3169 3165 3162 3160 3159 3156 3154 3152 3151
3129 3135 3136 3136 3142 3145 3141 3142 3139 3137 3139 3144 3150 3153 3154 3159 3164 3167 3169 3173 3176 3176 3177 3179 3180 3181 3183 3183 3185 3186 3186 3187 3186 3184 3182 3179 3176 3174 3170 3168 3165 3162 3158 3156 3154 3152 3150 3147 3145
3123 3124 3128 3133 3134 3136 3142 3137 3135 3134 3135 3139 3145 3150 3151 3154 3160 3162 3165 3168 3171 3171 3170 3172 3173 3175 3177 3178 3180 3181 3181 3181 3181 3179 3178 3176 3174 3172 3169 3166 3162 3159 3155 3153 3151 3149 3146 3143 3141
3116 3119 3123 3125 3129 3130 3131 3132 3131 3131 3133 3137 3145 3148 3152 3155 3153 3157 3162 3164 3164 3164 3166 3166 3167 3170 3172 3174 3175 3176 3176 3176 3176 3176 3175 3173 3172 3169 3166 3161 3158 3155 3152 3149 3146 3144 3142 3137 3135